Resultados

1500 Electronico
Fecha Serie Viento Presión Humedad Temperatura
19-03-2016 Final_A
Puesto Andanivel Nombre Dia Mes Año Pais Marca
01 Gonzalez Waldemar 30 11 1998 FLRES - 4.03.13 -
02 Coito Leonardo 10 9 1994 ATE - 4.03.45 -
03 Gonzalez Nicolas 28 5 1990 ATE - 4.04.25 -
04 Segovia Cristian 20 12 1995 ISAAC - 4.08.90 -
05 Rodriguez Joaquin 4 11 1993 NAC - 4.19.14 -
05 Flores Guillermo 27 8 1985 ATE - 4.19.14 -
06 Arbiza Juan 5 11 1992 CAPOA - 4.21.29 -
07 Mora Pablo 19 3 1979 DSP - 4.22.07 -
08 Falero Nicolas 22 6 1990 CME - 4.25.35 -
09 Aranda German 16 3 1995 SJOSE - 4.26.33
10 Bonilla William 19 9 1987 FLRES - 4.28.70
11 Cabana Alejandro 9 3 1993 EST - 4.30.36 -
12 Cabrera Richard 26 1 1994 NAC - 4.30.82 -
13 Navas Nicolas 10 5 1994 ATE - 4.30.93 -
14 Roqueta Lucas 27 12 1995 NAC - 4.33.84 -
15 Perdomo Jairo 17 11 1986 MYC - 4.35.92 -
16 Blengini Pablo 25 3 1982 NAC - 4.36.99 -
17 Mateos Cristian 23 11 2001 SACUD - 4.38.30 -
18 Gonzalez Brandon Adrian 27 2 1997 NAC - 4.38.81 -
19 Piedrabuena Pablo 23 4 1990 PE - 4.39.66 -
20 Gonzalon Alsina 28 7 1999 CAP - 4.42.05 -
21 Gonzalez Alfredo 14 2 1973 FLRES - 4.50.15 -
22 Sosa Marcos 20 12 1990 STO - 4.51.29
23 Marozzi Lucas 9 8 2001 SOR - 4.55.59 -
24 De Los Santos Joaquin 24 9 1999 DSP - 4.58.22 -
25 Pontet Alejandro 16 12 1972 SJOSE - 5.00.46 -
26 Gronrroz Ciro 5 10 2000 DSP - 5.06.54 -
27 Barreto Carlos 29 10 1973 APRAD - 5.07.18
28 Maldonado Facundo 26 10 1998 SOR - 5.07.98 -
29 Cicimbra Lucas 6 8 2001 NAC - 5.08.70 -